Simultaneous Nadir Overpasses (SNOs) Predictions

Prediction of SNOs between AQUA and NPP Satellite Orbit:

Table of predicted SNOs for the next 14.0 days since TLE Epoch: 12/28/2012
Index Date (AQUA) Time (AQUA) Lat,Lon (AQUA) SZA (AQUA ) Date (NPP) Time (NPP) Lat,Lon (NPP) SZA (NPP ) Distance(km) Time Diff (sec)
1 12/28/2012 15:44:03 76.86,-174.21 119.00 12/28/2012 15:43:45 76.85,-174.29 119.04 2.19 18
2 12/28/2012 16:33:10 -77.79, -2.84 62.10 12/28/2012 16:34:08 -77.80, -2.74 62.17 2.54 58
3 12/31/2012 07:11:20 -76.22, 131.85 60.39 12/31/2012 07:10:09 -76.21, 131.76 60.31 2.64 71
4 12/31/2012 08:00:24 77.24, -56.90 118.46 12/31/2012 08:00:30 77.24, -56.88 118.45 0.61 6
5 01/02/2013 23:27:36 -76.74,-110.51 61.13 01/02/2013 23:26:50 -76.74,-110.49 61.10 0.58 46
6 01/03/2013 00:16:48 77.37, 59.49 118.15 01/03/2013 00:17:20 77.36, 59.42 118.13 1.85 32
7 01/05/2013 15:43:59 -76.90, 5.97 61.54 01/05/2013 15:43:40 -76.90, 5.92 61.51 1.31 19
8 01/05/2013 16:33:05 77.79, 177.18 117.42 01/05/2013 16:34:03 77.80, 177.28 117.34 2.68 58
9 01/08/2013 07:11:08 76.35, -47.66 118.82 01/08/2013 07:10:00 76.35, -47.69 118.89 0.80 68
10 01/08/2013 08:00:19 -77.14, 122.77 62.09 01/08/2013 08:00:28 -77.13, 122.68 62.07 2.31 9
11 01/10/2013 23:27:25 76.68, 69.35 118.13 01/10/2013 23:26:46 76.68, 69.30 118.18 1.25 39




NCC Satellite Simultaneous N
